Regional Weather Roundup
Issued by NWS

Home | Current Version | Previous Version | Text Only | Print | Product List | Glossary On
Versions: 1 2 3 4 5 6 7 8 9 10 11 12 13 14 15 16 17 18 19 20 21 22 23 24 25 26 27
000
ASUS45 KBOI 261210
RWRID

IDAHO REGIONAL WEATHER ROUNDUP
NATIONAL WEATHER SERVICE BOISE ID
500 AM MST SUN FEB 26 2017

NOTE: "FAIR" INDICATES FEW OR NO CLOUDS BELOW 12000 FEET
WITH NO SIGNIFICANT WEATHER AND/OR OBSTRUCTIONS TO VISIBILITY

IDZ012-014-261300-
SOUTHWEST IDAHO


CITY           SKY/WX    TMP DP  RH WIND       PRES   REMARKS
BOISE          MOCLDY    30  19  63 SE12      29.88F WCI  20
CALDWELL       MOCLDY    29  21  72 E9        29.89F WCI  20
MOUNTAIN HOME  MOCLDY    24  19  81 E15       29.89F WCI  11
$$

IDZ016-017-261300-
SOUTHCENTRAL IDAHO


CITY           SKY/WX    TMP DP  RH WIND       PRES   REMARKS
BURLEY         PTCLDY    23  10  57 S13       29.88F WCI  11
JEROME           N/A    N/A N/A N/A MISG      29.90F
TWIN FALLS     MOCLDY    21   8  57 S14       29.88F WCI   8
$$

IDZ019>023-261300-
SOUTHEAST IDAHO


CITY           SKY/WX    TMP DP  RH WIND       PRES   REMARKS
IDAHO FALLS    CLOUDY     7   5  91 W7        29.89F WCI  -5
POCATELLO      CLOUDY    13   6  74 NE3       29.90F
REXBURG        CLOUDY     5   3  91 W5        29.87S WCI  -4
$$

IDZ006-010-011-018-031-032-261300-
CENTRAL IDAHO MOUNTAINS


CITY           SKY/WX    TMP DP  RH WIND       PRES   REMARKS
MCCALL         LGT SNOW  21  17  84 SE6       29.72F FOG     WCI  13
HAILEY         PTCLDY     7   1  78 NW9       29.86F WCI  -7
STANLEY          N/A      9   4  80 S7        29.75F WCI  -2
SALMON         CLOUDY    27   9  46 SW9       29.79S WCI  17
CHALLIS        CLOUDY    17   9  70 CALM      29.78F
$$

IDZ002-004-006-007-026-261300-
NORTHERN IDAHO


CITY           SKY/WX    TMP DP  RH WIND       PRES   REMARKS
LEWISTON       FLURRIES  33  29  85 E6        29.82F WCI  28
LOWELL           N/A     32  28  85 CALM      29.87F
COEUR D`ALENE  LGT SNOW  28  26  92 S7        29.75F FOG     WCI  21
MULLAN PASS    LGT SNOW  16  14  92 SW8       29.57F FOG     WCI   5
$$




USA.gov is the U.S. government's official web portal to all federal, state and local government web resources and services.